Flag for Kazakhstan Weather past 2 weeks in Almaty, Kazakhstan

Now
59 °F

Passing clouds.


Feels Like: 59 °F
Forecast: 54 / 79 °F
Wind: 1 mph from Southeast

Location: Almaty Airport

Current Time: Apr 25, 2015 at 10:58:41 PM

Latest Report: Apr 25, 2015 at 10:30 PM


Visibility: N/A

Pressure: 29.71 "Hg

Humidity: 68%

Dew point: 48 °F

Location of AlmatyLocation

Historic Weather in Almaty — Graph

°F

Almaty temperature yesterday

Maximum temperature yesterday: 90 °F (at 1:30 PM)
Minimum temperature yesterday: 52 °F (at 3:30 AM)
Average temperature yesterday: 69 °F

Past Weeks' High & Low Weather Summary

 TemperatureHumidityPressure
High90 °F (Apr 24, 1:30 PM)94% (Apr 16, 4:00 AM)30.33 "Hg (Apr 16, 4:00 AM)
Low43 °F (Apr 11, 4:30 AM)9% (Apr 11, 4:00 PM)29.71 "Hg (Apr 25, 9:30 PM)
Average61 °F51%30.02 "Hg
* Reported Apr 10 9:00 PM — Apr 25 9:30 PM, Almaty, Weather by CustomWeather, © 2015

Note: Actual official high and low records may vary slightly from our data, if they occured in-between our weather recording intervals... More about our weather records

Advertising

Almaty weather history for previous 24 hours

 ConditionsComfort  
Time TempWeatherWind HumidityBarometerVisibility
9:30 PM
Sat, Apr 25
64 °FPassing clouds.1 mph60%29.71 "HgN/A
9:00 PM64 °FPassing clouds.1 mph60%29.74 "HgN/A
8:30 PM68 °FPassing clouds.3 mph46%29.74 "HgN/A
8:00 PM70 °FPassing clouds.3 mph46%29.74 "HgN/A
7:30 PM70 °FPartly sunny.8 mph50%29.74 "HgN/A
7:00 PM73 °FPartly sunny.8 mph47%29.77 "HgN/A
6:30 PM75 °FBroken clouds.8 mph41%29.77 "HgN/A
6:00 PM79 °FBroken clouds.10 mph32%29.77 "HgN/A
5:30 PM81 °FBroken clouds.13 mph30%29.80 "HgN/A
5:00 PM81 °FBroken clouds.10 mph32%29.80 "HgN/A
4:30 PM79 °FBroken clouds.8 mph39%29.83 "HgN/A
4:00 PM77 °FBroken clouds.8 mph42%29.83 "HgN/A
3:30 PM77 °FBroken clouds.10 mph44%29.86 "HgN/A
3:00 PM77 °FBroken clouds.10 mph39%29.86 "HgN/A
2:30 PM75 °FBroken clouds.8 mph39%29.89 "HgN/A
2:00 PM75 °FMore clouds than sun.8 mph39%29.89 "HgN/A
1:30 PM75 °FMore clouds than sun.6 mph44%29.92 "HgN/A
1:00 PM75 °FBroken clouds.3 mph41%29.95 "HgN/A
12:30 PM73 °FBroken clouds.6 mph47%29.95 "HgN/A
12:00 PM73 °FBroken clouds.3 mph44%29.98 "HgN/A
11:30 AM72 °FBroken clouds.6 mph50%29.98 "HgN/A
11:00 AM72 °FBroken clouds.3 mph47%30.01 "HgN/A
10:30 AM72 °FBroken clouds.1 mph41%30.01 "HgN/A
10:00 AM70 °FBroken clouds.3 mph46%30.01 "HgN/A
9:30 AM70 °FBroken clouds.1 mph50%30.04 "HgN/A
8:30 AM66 °FBroken clouds.3 mph60%30.04 "HgN/A
8:00 AM64 °FBroken clouds.1 mph56%30.04 "HgN/A
7:30 AM61 °FBroken clouds.3 mph63%30.07 "HgN/A
7:00 AM59 °FPartly sunny.3 mph59%30.07 "HgN/A
6:30 AM59 °FPartly sunny.1 mph59%30.07 "HgN/A
5:30 AM59 °FPassing clouds.1 mph55%30.04 "HgN/A
5:00 AM61 °FPassing clouds.6 mph52%30.04 "HgN/A
4:30 AM59 °FPassing clouds.3 mph59%30.04 "HgN/A
4:00 AM59 °FPassing clouds.3 mph59%30.04 "HgN/A
3:30 AM63 °FPassing clouds.6 mph49%30.04 "HgN/A
3:00 AM64 °FPassing clouds.3 mph49%30.04 "HgN/A
2:30 AM63 °FPartly cloudy.3 mph56%30.04 "HgN/A
2:00 AM61 °FPassing clouds.3 mph63%30.04 "HgN/A
1:30 AM63 °FPassing clouds.3 mph64%30.04 "HgN/A
1:00 AM66 °FOvercast.3 mph46%30.04 "HgN/A
12:30 AM64 °FOvercast.6 mph56%30.04 "HgN/A
12:00 AM66 °FMostly cloudy.3 mph49%30.04 "HgN/A
11:30 PM
Fri, Apr 24
70 °FMostly cloudy.6 mph38%30.04 "HgN/A
11:00 PM68 °FMostly cloudy.10 mph46%30.04 "HgN/A
10:30 PM66 °FMostly cloudy.8 mph49%30.07 "HgN/A
10:00 PM64 °FMostly cloudy.6 mph56%30.09 "HgN/A
Weather by CustomWeather, © 2015

See weather overviewHow to use our weather pages